Tracking 28790 objects as of 19-Apr-2024
HD Live streaming from Space Station
objects crossing your sky now

SL-8 R/B

Track SL-8 R/B now!
10-day predictions


NORAD ID: 12792
Int'l Code: 1981-084B
Perigee: 762.2 km
Apogee: 780.9 km
Inclination: 74.0 °
Period: 100.1 minutes
Semi major axis: 7142 km
RCS: 5.0997 m2 (large)
Launch date: August 28, 1981
Source: Commonwealth of Independent States (former USSR) (CIS)
Launch site: PLESETSK MISSILE AND SPACE COMPLEX (PKMTR)

Note: This is a ROCKET BODY
Your satellite tracking list
Your tracking list is empty




NASA's NSSDC Master Catalog

Two Line Element Set (TLE):
1 12792U 81084B   24110.15800432  .00000869  00000-0  29446-3 0  9994
2 12792  74.0272 115.5390 0013060 160.4994 199.6662 14.38209508234033
Source of the keplerian elements: AFSPC